This is the latest recevied weather packets stored in our database for station/object KC4LZN. If no packets are shown the sender has not sent any weather packets the latest 10 day(s).
| Time | Temp. | Humidity | Pressure | Rain* | Wind** | Luminosity | Snow |
|---|---|---|---|---|---|---|---|
| 1777939878 | 22.78° C | 62% | 1016 hPa | 0 mm | - | 1 W/m² | - |
| 1777939575 | 22.78° C | 62% | 1016.1 hPa | 0 mm | - | 3 W/m² | - |
| 1777939273 | 22.78° C | 61% | 1016 hPa | 0 mm | - | 5 W/m² | - |
| 1777938969 | 23.33° C | 61% | 1015.8 hPa | 0 mm | - | 9 W/m² | - |
| 1777938666 | 23.33° C | 61% | 1015.9 hPa | 0 mm | - | 12 W/m² | - |
| 1777938363 | 23.33° C | 60% | 1016.1 hPa | 0 mm | - | 17 W/m² | - |
| 1777938060 | 23.89° C | 59% | 1015.8 hPa | 0 mm | - | 21 W/m² | - |
| 1777937755 | 23.89° C | 58% | 1015.8 hPa | 0 mm | - | 25 W/m² | - |
| 1777937452 | 23.89° C | 58% | 1015.8 hPa | 0 mm | - | 30 W/m² | - |
| 1777937149 | 24.44° C | 57% | 1015.4 hPa | 0 mm | - | 36 W/m² | - |
| 1777936847 | 24.44° C | 57% | 1015.6 hPa | 0 mm | - | 43 W/m² | - |
| 1777936543 | 24.44° C | 56% | 1015.5 hPa | 0 mm | - | 53 W/m² | - |
| 1777936239 | 24.44° C | 56% | 1015.5 hPa | 0 mm | - | 60 W/m² | - |
| 1777935936 | 25° C | 55% | 1015.5 hPa | 0 mm | - | 70 W/m² | - |
| 1777935635 | 25° C | 55% | 1015.7 hPa | 0 mm | - | 79 W/m² | - |
| 1777935332 | 25° C | 56% | 1015.6 hPa | 0 mm | - | 90 W/m² | - |
| 1777935029 | 25° C | 55% | 1015.6 hPa | 0 mm | - | 102 W/m² | - |
| 1777934725 | 25° C | 55% | 1015.5 hPa | 0 mm | - | 119 W/m² | - |
| 1777934422 | 25° C | 54% | 1015.5 hPa | 0 mm | - | 60 W/m² | - |
| 1777934119 | 25° C | 53% | 1015.6 hPa | 0 mm | - | 160 W/m² | - |
| 1777933815 | 25° C | 53% | 1015.5 hPa | 0 mm | - | 92 W/m² | - |
| 1777933512 | 25° C | 53% | 1015.5 hPa | 0 mm | - | 99 W/m² | - |
| 1777933209 | 25.56° C | 53% | 1015.5 hPa | 0 mm | - | 106 W/m² | - |
| 1777932907 | 25.56° C | 53% | 1015.4 hPa | 0 mm | - | 123 W/m² | - |
| 1777932603 | 25.56° C | 52% | 1015.5 hPa | 0 mm | - | 108 W/m² | - |
* Rain latest hour (hover to see other rain measurements)
** Current wind speed in m/s (hover to see current wind gust speed)